TimeCDT,TemperatureF,Dew PointF,Humidity,Sea Level PressureIn,VisibilityMPH,Wind Direction,Wind SpeedMPH,Gust SpeedMPH,PrecipitationIn,Events,Conditions,WindDirDegrees,DateUTC
12:15 AM,37.4,30.2,75,29.93,10.0,West,10.4,-,N/A,,Overcast,280,2013-10-18 05:15:00
12:35 AM,37.4,30.2,75,29.93,10.0,West,10.4,-,N/A,,Scattered Clouds,280,2013-10-18 05:35:00
12:55 AM,37.4,28.4,70,29.92,10.0,West,9.2,-,N/A,,Clear,280,2013-10-18 05:55:00
1:15 AM,37.4,28.4,70,29.92,10.0,WNW,9.2,-,N/A,,Mostly Cloudy,290,2013-10-18 06:15:00
1:35 AM,37.4,28.4,70,29.93,10.0,WNW,8.1,-,N/A,,Scattered Clouds,290,2013-10-18 06:35:00
1:55 AM,35.6,28.4,75,29.93,10.0,WNW,8.1,-,N/A,,Clear,300,2013-10-18 06:55:00
2:15 AM,35.6,28.4,75,29.93,10.0,WNW,9.2,-,N/A,,Mostly Cloudy,290,2013-10-18 07:15:00
2:35 AM,35.6,28.4,75,29.93,10.0,WNW,8.1,-,N/A,,Overcast,300,2013-10-18 07:35:00
2:55 AM,35.6,28.4,75,29.92,10.0,WNW,8.1,-,N/A,,Overcast,290,2013-10-18 07:55:00
3:15 AM,35.6,28.4,75,29.92,10.0,NW,8.1,-,N/A,,Mostly Cloudy,310,2013-10-18 08:15:00
3:35 AM,35.6,28.4,75,29.92,10.0,WNW,9.2,-,N/A,,Scattered Clouds,300,2013-10-18 08:35:00
3:55 AM,35.6,28.4,75,29.92,10.0,WNW,8.1,-,N/A,,Mostly Cloudy,300,2013-10-18 08:55:00
4:15 AM,35.6,28.4,75,29.92,10.0,WNW,6.9,-,N/A,,Overcast,300,2013-10-18 09:15:00
4:35 AM,33.8,28.4,81,29.91,10.0,WNW,6.9,-,N/A,,Overcast,300,2013-10-18 09:35:00
4:55 AM,33.8,28.4,81,29.91,10.0,WNW,6.9,-,N/A,,Overcast,300,2013-10-18 09:55:00
5:15 AM,33.8,26.6,75,29.92,10.0,NW,5.8,-,N/A,,Scattered Clouds,320,2013-10-18 10:15:00
5:35 AM,33.8,26.6,75,29.92,10.0,WNW,6.9,-,N/A,,Clear,300,2013-10-18 10:35:00
5:55 AM,32.0,26.6,80,29.92,10.0,West,5.8,-,N/A,,Clear,280,2013-10-18 10:55:00
6:15 AM,32.0,26.6,80,29.92,10.0,West,8.1,-,N/A,,Clear,280,2013-10-18 11:15:00
6:35 AM,33.8,26.6,75,29.92,10.0,West,8.1,-,N/A,,Clear,280,2013-10-18 11:35:00
6:55 AM,33.8,26.6,75,29.92,10.0,WNW,5.8,-,N/A,,Clear,290,2013-10-18 11:55:00
7:15 AM,33.8,26.6,75,29.92,10.0,West,6.9,-,N/A,,Mostly Cloudy,280,2013-10-18 12:15:00
7:35 AM,33.8,26.6,75,29.92,10.0,West,9.2,-,N/A,,Mostly Cloudy,280,2013-10-18 12:35:00
7:55 AM,33.8,26.6,75,29.92,10.0,West,8.1,-,N/A,,Partly Cloudy,280,2013-10-18 12:55:00
8:15 AM,33.8,26.6,75,29.92,10.0,West,9.2,-,N/A,,Partly Cloudy,280,2013-10-18 13:15:00
8:35 AM,33.8,26.6,75,29.92,10.0,West,8.1,-,N/A,,Partly Cloudy,280,2013-10-18 13:35:00
8:55 AM,33.8,28.4,81,29.92,10.0,West,9.2,-,N/A,,Mostly Cloudy,280,2013-10-18 13:55:00
9:15 AM,35.6,28.4,75,29.92,10.0,WNW,9.2,-,N/A,,Partly Cloudy,290,2013-10-18 14:15:00
9:35 AM,35.6,28.4,75,29.92,10.0,WNW,8.1,-,N/A,,Mostly Cloudy,290,2013-10-18 14:35:00
9:55 AM,37.4,28.4,70,29.92,10.0,WNW,10.4,-,N/A,,Overcast,290,2013-10-18 14:55:00
10:15 AM,37.4,30.2,75,29.91,10.0,West,9.2,-,N/A,,Overcast,280,2013-10-18 15:15:00
10:35 AM,39.2,30.2,70,29.91,10.0,West,10.4,-,N/A,,Overcast,280,2013-10-18 15:35:00
10:55 AM,39.2,30.2,70,29.91,10.0,West,12.7,-,N/A,,Overcast,280,2013-10-18 15:55:00
11:15 AM,39.2,30.2,70,29.91,10.0,West,15.0,-,N/A,,Overcast,270,2013-10-18 16:15:00
11:35 AM,39.2,30.2,70,29.91,10.0,West,16.1,-,N/A,,Overcast,270,2013-10-18 16:35:00
11:55 AM,39.2,30.2,70,29.90,10.0,West,13.8,-,N/A,,Overcast,270,2013-10-18 16:55:00
12:15 PM,39.2,32.0,75,29.89,10.0,West,12.7,-,N/A,,Overcast,270,2013-10-18 17:15:00
12:35 PM,41.0,32.0,70,29.89,10.0,West,15.0,-,N/A,,Overcast,270,2013-10-18 17:35:00
12:55 PM,41.0,33.8,76,29.88,10.0,West,13.8,20.7,N/A,,Overcast,280,2013-10-18 17:55:00
1:15 PM,41.0,32.0,70,29.88,9.0,West,17.3,20.7,N/A,,Overcast,280,2013-10-18 18:15:00
1:35 PM,42.8,33.8,70,29.86,10.0,West,17.3,23.0,N/A,,Overcast,280,2013-10-18 18:35:00
1:55 PM,42.8,33.8,70,29.85,10.0,WNW,19.6,24.2,N/A,,Overcast,290,2013-10-18 18:55:00
2:15 PM,44.6,32.0,61,29.84,10.0,West,17.3,-,N/A,,Overcast,280,2013-10-18 19:15:00
2:35 PM,44.6,32.0,61,29.84,10.0,WNW,18.4,23.0,N/A,,Overcast,290,2013-10-18 19:35:00
2:55 PM,44.6,32.0,61,29.83,10.0,WNW,17.3,-,N/A,,Overcast,290,2013-10-18 19:55:00
3:15 PM,44.6,32.0,61,29.82,10.0,WNW,20.7,26.5,N/A,,Mostly Cloudy,300,2013-10-18 20:15:00
3:35 PM,42.8,33.8,70,29.82,10.0,NW,10.4,-,N/A,,Mostly Cloudy,310,2013-10-18 20:35:00
3:55 PM,42.8,32.0,66,29.81,10.0,NW,17.3,-,N/A,,Overcast,310,2013-10-18 20:55:00
4:15 PM,41.0,32.0,70,29.81,10.0,West,15.0,-,N/A,,Overcast,270,2013-10-18 21:15:00
4:35 PM,42.8,33.8,70,29.80,10.0,West,16.1,-,N/A,,Mostly Cloudy,270,2013-10-18 21:35:00
4:55 PM,41.0,33.8,76,29.80,10.0,West,16.1,-,N/A,,Partly Cloudy,270,2013-10-18 21:55:00
5:15 PM,42.8,33.8,70,29.79,10.0,West,15.0,-,N/A,,Clear,280,2013-10-18 22:15:00
5:35 PM,42.8,32.0,66,29.79,10.0,West,13.8,-,N/A,,Clear,280,2013-10-18 22:35:00
5:55 PM,42.8,30.2,61,29.79,10.0,West,10.4,-,N/A,,Clear,280,2013-10-18 22:55:00
6:15 PM,41.0,32.0,70,29.79,10.0,West,12.7,-,N/A,,Mostly Cloudy,280,2013-10-18 23:15:00
6:35 PM,41.0,32.0,70,29.78,10.0,West,11.5,-,N/A,,Overcast,270,2013-10-18 23:35:00
6:55 PM,41.0,32.0,70,29.78,10.0,West,12.7,-,N/A,,Overcast,280,2013-10-18 23:55:00
7:15 PM,41.0,32.0,70,29.78,10.0,West,11.5,17.3,N/A,,Overcast,280,2013-10-19 00:15:00
7:35 PM,41.0,32.0,70,29.78,10.0,West,15.0,-,N/A,,Overcast,280,2013-10-19 00:35:00
7:55 PM,41.0,32.0,70,29.77,10.0,West,16.1,-,N/A,,Overcast,280,2013-10-19 00:55:00
8:15 PM,41.0,32.0,70,29.77,10.0,WNW,13.8,-,N/A,,Overcast,290,2013-10-19 01:15:00
8:35 PM,39.2,33.8,81,29.76,10.0,West,12.7,-,N/A,,Overcast,280,2013-10-19 01:35:00
8:55 PM,39.2,33.8,81,29.76,10.0,West,10.4,-,N/A,,Overcast,270,2013-10-19 01:55:00
9:15 PM,39.2,32.0,75,29.75,10.0,West,10.4,-,N/A,,Mostly Cloudy,270,2013-10-19 02:15:00
9:35 PM,39.2,32.0,75,29.74,10.0,West,6.9,-,N/A,,Mostly Cloudy,260,2013-10-19 02:35:00
9:55 PM,39.2,33.8,81,29.74,10.0,WSW,11.5,-,N/A,,Mostly Cloudy,250,2013-10-19 02:55:00
10:15 PM,39.2,33.8,81,29.73,10.0,WSW,9.2,-,N/A,,Overcast,240,2013-10-19 03:15:00
10:35 PM,39.2,33.8,81,29.73,10.0,WSW,9.2,-,N/A,,Mostly Cloudy,250,2013-10-19 03:35:00
10:55 PM,37.4,33.8,87,29.73,10.0,NE,9.2,-,N/A,,Overcast,40,2013-10-19 03:55:00
11:15 PM,37.4,32.0,81,29.73,5.0,NW,6.9,17.3,0.04,,Overcast,310,2013-10-19 04:15:00
11:35 PM,37.4,32.0,81,29.72,10.0,WNW,8.1,-,0.04,,Overcast,300,2013-10-19 04:35:00
11:55 PM,37.4,32.0,81,29.72,10.0,NW,5.8,-,0.04,,Overcast,320,2013-10-19 04:55:00